Regional Weather Roundup
Issued by NWS Midland/Odessa, TX

Skip options and go directly to product.
Home | Oldest Version | Previous Version | Current Version | All | Text Only | Save Text | Print | Product List | Glossary On

Skip product version selection by date and time.   
538
ASUS44 KMAF 242110
RWRMAF
MIDLAND AREA WEATHER ROUNDUP
NATIONAL WEATHER SERVICE MIDLAND TX
400 PM CDT FRI OCT 24 2014

...IN SOUTHWEST TEXAS AND SOUTHEAST NEW MEXICO...

CITY           SKY/WX    TMP DP  RH WIND       PRES   REMARKS
ALPINE         SUNNY     81  43  26 CALM      30.27F
ANDREWS        FAIR      84  50  30 SW10G18   30.14S
ARTESIA        NOT AVBL
BIG SPRING     SUNNY     85  47  26 S5        30.13F
CARLSBAD       SUNNY     83  54  36 SE7       30.12F
DRYDEN           N/A     83  62  49 E10       30.10F
FORT STOCKTON  SUNNY     86  46  24 SW8       30.13F
GUAD PASS      SUNNY     78  44  29 W21       30.27F
HOBBS          SUNNY     82  48  30 SW9       30.16F
MARFA          SUNNY     79  43  27 SW8       30.26F
MIDLAND AIRPK  SUNNY     87  44  22 SW6       30.12F
MIDLAND INTL   SUNNY     86  46  24 SW5       30.11F
ODESSA         SUNNY     86  46  24 SW8       30.13F
PECOS          SUNNY     85  51  30 S7        30.10F
PRESIDIO       FAIR      85  49  28 W5        30.13F
SEMINOLE       SUNNY     83  47  28 SW9       30.15F
SNYDER         SUNNY     82  59  46 S8        30.11F
WINK           SUNNY     84  47  27 SW8       30.11F
$$
...OTHER STATIONS IN TEXAS...

CITY           SKY/WX    TMP DP  RH WIND       PRES   REMARKS
ABILENE        SUNNY     86  55  34 SW14G20   30.09F
AMARILLO       SUNNY     86  39  19 W6        30.11F
AUSTIN         MOSUNNY   85  60  42 VRB5      30.08F
BROWNSVILLE    SUNNY     84  64  50 NE10      30.07F
CORPUS CHRISTI MOSUNNY   83  60  45 E10       30.08F
DALLAS FTW     MOSUNNY   84  60  44 S10       30.07F
DEL RIO        SUNNY     83  63  50 SE7       30.08F
EL PASO        SUNNY     82  45  27 CALM      30.17F
HOUSTON INT    SUNNY     81  56  42 NE6       30.09F
LUBBOCK        MOSUNNY   85  50  29 SW13G23   30.11F
SAN ANGELO     SUNNY     87  52  29 VRB7      30.09F
SAN ANTONIO    MOSUNNY   85  58  39 N3        30.09F
WACO           SUNNY     83  59  44 S8        30.09F
WICHITA FALLS  NOT AVBL
$$
...OTHER LOCATIONS IN NEW MEXICO...

CITY           SKY/WX    TMP DP  RH WIND       PRES   REMARKS
ALAMAGORDO     NOT AVBL
ALBUQUERQUE    SUNNY     77  33  20 W7        30.26F
CANNON AFB     SUNNY     83  38  20 SW13G21   30.15S
CLOVIS         SUNNY     82  37  20 SW14      30.17S
HOLLOMAN AFB   SUNNY     80  48  33 VRB3      30.17F
ROSWELL        SUNNY     83  46  27 SE10      30.13F
RUIDOSO        SUNNY     72  39  30 N10G17    30.35F
SANTA FE       SUNNY     77  23  13 VRB6      30.28F
TRUTH OR CONSE SUNNY     78  42  27 S6        30.21F
TUCUMCARI      SUNNY     88  35  15 S9        30.09F
$$

USA.gov is the U.S. government's official web portal to all federal, state and local government web resources and services.